Other Public Products
Issued by NWS Grand Forks, ND

Home | Current Version | Previous Version | Graphics & Text | Print | Product List | Glossary On
Versions: 1 2 3 4 5 6 7 8 9 10 11 12 13 14 15 16 17 18 19 20 21 22 23 24 25 26 27 28 29 30 31 32 33 34 35 36 37 38 39 40 41 42 43 44 45 46 47 48 49 50
000
FPUS83 KFGF 020010
OPUFGF
PRAIRIE TO PINES WEATHER ROUNDUP
NATIONAL WEATHER SERVICE EASTERN NORTH DAKOTA/GRAND FORKS ND
600 PM CST SUN MAR 01 2015

 **SATELLITE DATA USED TO AUGMENT SKY COVER AT AUTOMATED STATIONS**
 *****  WEATHER ACROSS EASTERN NORTH DAKOTA  *****

CITY           SKY/WX    TMP DP  RH WIND       PRES   REMARKS
GRAND FORKS    PTCLDY    18   6  59 NW10      30.29R WCI   6
6HR MIN TEMP:  18; 6HR MAX TEMP:  22; 6HR PCP: TRACE;

GRAND FORKS AF PTCLDY    18   8  65 NW9       30.29R WCI   7
GRAND CITY NWS   N/A     18 N/A N/A NW7         N/A  WCI   8
BUXTON         NOT AVBL
DEVILS LAKE    CLEAR     16   7  67 W12       30.27R WCI   3
6HR MIN TEMP:  14; 6HR MAX TEMP:  19;

FARGO          CLOUDY    21  11  65 NW14      30.31R WCI   8
6HR MIN TEMP:  20; 6HR MAX TEMP:  24; 6HR PCP:  0.01;

WAHPETON ARPT  CLOUDY    23  12  63 NW13      30.31R WCI  11
$$

 *****  WEATHER ACROSS CENTRAL AND WESTERN NORTH DAKOTA  *****

CITY           SKY/WX    TMP DP  RH WIND       PRES   REMARKS
JAMESTOWN      CLEAR     17   6  62 NW10      30.30R WCI   5
6HR MIN TEMP:  17; 6HR MAX TEMP:  22;

BISMARCK       CLEAR     23   8  52 NW13      30.34R WCI  11
6HR MIN TEMP:  23; 6HR MAX TEMP:  27; 6HR PCP: TRACE;

MINOT          CLEAR     20   8  60 W12       30.28S WCI   8
6HR MIN TEMP:  16; 6HR MAX TEMP:  22;

MINOT AFB      CLEAR     16  10  76 W10       30.28R WCI   4
6HR MIN TEMP:  15; 6HR MAX TEMP:  20;

GARRISON         N/A     19  11  70 W6        30.30R WCI  11
6HR MIN TEMP:  18; 6HR MAX TEMP:  22;

WILLISTON      CLEAR     24   8  50 NW3       30.29S
6HR MIN TEMP:  20; 6HR MAX TEMP:  26;

DICKINSON      FLURRIES  22  11  62 W9        30.26S WCI  12
6HR MIN TEMP:  22; 6HR MAX TEMP:  28; 6HR PCP: TRACE;

HETTINGER      MOCLDY    22   9  57 W9        30.29R WCI  12
6HR MIN TEMP:  22; 6HR MAX TEMP:  27; 6HR PCP: TRACE;

$$

 *****  OTHER OBSERVATIONS NORTHEAST NORTH DAKOTA  *****

CITY           SKY/WX    TMP DP  RH WIND       PRES   REMARKS
WALHALLA       HAZE      16   9  73 W8        30.25S VSB<1/4 WCI   5
LANGDON        NOT AVBL
CAVALIER       FAIR      16   9  73 W13       30.26S WCI   2
GRAFTON        NOT AVBL
CANDO          FAIR      14   7  73 W15       30.26R WCI  -1
FORT TOTTEN    NOT AVBL
ROLLA          FAIR      16   3  57 W15       30.22R WCI   1
RUGBY          FAIR      14   7  73 W12       30.27S WCI   0
 ***** THE ABOVE OBSERVATIONS ARE NON NWS ARE NOT QUALITY
        CONTROLLED AND MAY MIS-REPORT RAIN FOR SNOW...
$$

 *****  OTHER OBSERVATIONS SOUTHEAST NORTH DAKOTA *****

CITY           SKY/WX    TMP DP  RH WIND       PRES   REMARKS
COOPERSTOWN    NOT AVBL
VALLEY CITY    CLOUDY    18   9  68 NW13      30.29R WCI   4
OAKES            N/A     19  10  68 NW16      30.32R WCI   5
GWINNER        MOCLDY    23  14  68 NW15      30.32R WCI  10
BUFFALO        NOT AVBL
WYNDMERE         N/A     19  10  68 NW8         N/A  WCI   9
 ***** THE ABOVE OBSERVATIONS ARE NON NWS ARE NOT QUALITY
       CONTROLLED AND MAY MIS-REPORT RAIN FOR SNOW...
$$

  *****  WEATHER ACROSS NORTHERN MINNESOTA  *****

CITY           SKY/WX    TMP DP  RH WIND       PRES   REMARKS
FLAG ISLAND    MOCLDY    16   3  57 NW17      30.15R WCI   0
WARROAD        CLEAR     18   3  53 W9        30.19R WCI   6
ROSEAU         CLEAR     16   7  67 W9        30.20R WCI   4
HALLOCK        NOT AVBL
THF RVR FALLS  CLEAR     12   9  85 W8        30.25R WCI   1
6HR MIN TEMP:  10; 6HR MAX TEMP:  16;

HALSTAD        NOT AVBL
FOSSTON        PTCLDY    12   7  79 W9        30.24S WCI   0
BAUDETTE       MOCLDY    17   6  62 W10       30.14R WCI   5
6HR MIN TEMP:  12; 6HR MAX TEMP:  19;

WASKISH        CLOUDY    12   9  85 SW13      30.18R WCI  -3
CROOKSTON      CLEAR     16  10  79 NW7       30.29R WCI   6
$$
  *****  WEATHER ACROSS CENTRAL AND WEST MINNESOTA  *****

CITY           SKY/WX    TMP DP  RH WIND       PRES   REMARKS
BEMIDJI        FLURRIES  13   8  78 W15       30.19R WCI  -3
PARK RAPIDS    CLOUDY    17   9  70 NW16G24   30.20R WCI   2
6HR MIN TEMP:  17; 6HR MAX TEMP:  21; 6HR PCP: TRACE;

WADENA         LGT SNOW  18  12  79 NW14      30.22R WCI   4
DETROIT LAKES  LGT SNOW  18  14  86 NW16      30.25R WCI   3
MOORHEAD       MOCLDY    18  14  86 NW9       30.31R WCI   6
FERGUS FALLS   CLOUDY    19  10  68 NW22      30.31R WCI   3
ELBOW LAKE     CLOUDY    20  13  75 NW13      30.27R WCI   7
6HR MIN TEMP:  19; 6HR MAX TEMP:  23;

MORRIS MN      CLOUDY    21  12  68 NW17G24   30.28R WCI   7
STAPLES        CLOUDY    18  12  79 W10       30.21R WCI   6
WHEATON        NOT AVBL
$$
  *****  WEATHER ELSEWHERE ACROSS MINNESOTA  *****

CITY           SKY/WX    TMP DP  RH WIND       PRES   REMARKS
DULUTH         MOCLDY    22   7  52 W15G23    30.09R WCI   9
6HR MIN TEMP:  20; 6HR MAX TEMP:  23;

INTRNTL FALLS  CLOUDY    16   7  67 W9        30.12R WCI   4
6HR MIN TEMP:  13; 6HR MAX TEMP:  19;

ELY            CLEAR     16   3  57 W8        30.07R WCI   5
CLOQUET        CLOUDY    21  10  63 W12G22    30.12R WCI   9
BRAINERD       CLOUDY    20   9  62 W10       30.20R WCI   9
6HR MIN TEMP:  18; 6HR MAX TEMP:  23; 6HR PCP: TRACE;

HIBBING        PTCLDY    19   5  54 W9G18     30.11R WCI   8
6HR MIN TEMP:  17; 6HR MAX TEMP:  22;

ALEXANDRIA     CLOUDY    19  12  74 NW15G25   30.25R WCI   5
6HR MIN TEMP:  19; 6HR MAX TEMP:  24; 6HR PCP: TRACE;

SAINT CLOUD    MOCLDY    24  12  60 W16G25    30.22R WCI  11
6HR MIN TEMP:  21; 6HR MAX TEMP:  27;

MINNEAPOLIS    MOCLDY    27  13  55 W15       30.24R WCI  15
6HR MIN TEMP:  22; 6HR MAX TEMP:  28;

$$

  *****  WEATHER ACROSS SOUTH DAKOTA  *****

CITY           SKY/WX    TMP DP  RH WIND       PRES   REMARKS
SIOUX FALLS    PTCLDY    27  15  61 NW13      30.34R WCI  16
6HR MIN TEMP:  27; 6HR MAX TEMP:  33;

BROOKINGS      NOT AVBL
WATERTOWN      MOCLDY    21  14  74 NW14      30.30R WCI   8
6HR MIN TEMP:  21; 6HR MAX TEMP:  28; 6HR PCP: TRACE;

HURON          CLEAR     26  16  65 N10       30.36R WCI  16
6HR MIN TEMP:  26; 6HR MAX TEMP:  31;

SISSETON         N/A     22  11  62 NW18      30.30R WCI   7
ABERDEEN       CLEAR     24  14  65 NW15      30.35R WCI  11
6HR MIN TEMP:  24; 6HR MAX TEMP:  29;

MITCHELL       PTCLDY    29  13  51 NW10      30.38R WCI  20
PIERRE         MOCLDY    31   9  39 NW13      30.33R WCI  21
6HR MIN TEMP:  30; 6HR MAX TEMP:  35;

MOBRIDGE       CLOUDY    26  14  60 NW10      30.31R WCI  16
RAPID CITY     CLEAR     24  12  60 N16       30.26R WCI  11
6HR MIN TEMP:  24; 6HR MAX TEMP:  28;

$$

  *****  SOME WEATHER IN NEARBY STATES *****

CITY           SKY/WX    TMP DP  RH WIND       PRES   REMARKS
GLASGOW MT     CLEAR     27   7  42 SW7       30.23F WCI  19
6HR MIN TEMP:  22; 6HR MAX TEMP:  30;

GREAT FALLS MT MOSUNNY   33  10  38 S17       30.01F WCI  22
6HR MIN TEMP:  28; 6HR MAX TEMP:  36;

CHEYENNE WY    MOCLDY    22  13  68 SW3       30.16F
6HR MIN TEMP:  19; 6HR MAX TEMP:  27;

SCOTTSBLUFF NE PTCLDY    33  10  38 SW6       30.24F
6HR MIN TEMP:  30; 6HR MAX TEMP:  37;

OMAHA NE       PTCLDY    35  17  47 NW9       30.36R
6HR MIN TEMP:  32; 6HR MAX TEMP:  40;

DES MOINES IA  PTCLDY    30  15  53 NW12      30.38R WCI  20
6HR MIN TEMP:  29; 6HR MAX TEMP:  33;

DAVENPORT IA   CLEAR     21  14  74 W10       30.33R WCI  10
6HR MIN TEMP:  21; 6HR MAX TEMP:  25;

CHICAGO IL     PTCLDY    21  14  74 W12       30.26S WCI   9
6HR MIN TEMP:  21; 6HR MAX TEMP:  25;

EAU CLAIRE WI  PTCLDY    22   7  52 W8        30.21S WCI  12
6HR MIN TEMP:  19; 6HR MAX TEMP:  25; 6HR PCP: TRACE;

LA CROSSE WI   CLEAR     23   8  52 W10       30.28R WCI  12
6HR MIN TEMP:  23; 6HR MAX TEMP:  28;

$$

  *****  SOME NATIONAL WEATHER *****

CITY           SKY/WX    TMP DP  RH WIND       PRES   REMARKS
LA GUARDIA NY  LGT SNOW  27  23  85 S3        30.32F FOG



USA.gov is the U.S. government's official web portal to all federal, state and local government web resources and services.